ECMWFFLT2_sfc_temp_015.txt.gz
Temp
98 97 100 99 100 79 89 91 82 87 97 91 80 79 84 83 75 70 82 78 83 93 91 94 93 92 92 93 95 96 94 95 95 94 94 92 93 94 92 90 90 90 91 89 90 89 89 89 89 88 86 86 86 86 86 85 85 85 85 85 85 86 85
99 102 102 101 101 100 94 82 90 99 104 97 83 72 76 74 69 72 81 75 77 77 74 91 90 89 91 91 91 95 94 93 92 94 94 91 93 94 93 91 90 88 88 90 91 91 91 90 90 88 86 87 87 87 86 85 85 84 85 85 85 85 84
97 102 101 96 101 103 95 92 102 87 76 73 81 76 65 65 64 69 75 79 78 81 76 84 83 86 88 90 91 92 92 92 91 93 94 93 94 94 92 92 90 91 91 90 90 91 93 91 89 89 88 88 88 88 87 88 85 86 86 86 86 85 85
97 97 94 81 88 98 99 101 93 100 90 81 76 76 77 75 66 66 70 76 72 82 85 86 84 87 88 91 91 91 93 93 92 92 94 94 92 93 93 91 90 90 92 93 93 93 93 90 89 90 91 92 92 90 87 87 87 86 86 85 85 84 85
95 83 89 86 89 85 87 88 88 90 88 94 89 85 78 73 69 70 69 69 73 81 92 90 89 89 90 91 90 90 91 94 95 93 93 92 93 92 93 91 91 90 92 93 95 95 94 92 92 93 93 93 93 92 89 89 86 86 86 86 85 84 85
84 86 95 94 94 94 90 88 84 88 84 80 73 70 85 81 75 63 67 67 77 85 92 90 91 92 92 92 91 91 92 94 94 94 94 93 93 93 93 93 92 93 92 92 95 95 94 93 93 93 94 94 95 93 93 92 92 90 90 86 85 84 84
87 91 97 99 99 100 97 94 88 93 91 87 79 65 74 82 80 82 79 72 74 87 92 93 92 93 94 93 93 92 93 93 94 95 96 94 93 93 94 93 92 91 91 92 92 91 91 89 89 91 92 94 94 94 94 93 92 91 93 90 86 84 84
94 96 100 99 99 98 94 96 96 93 86 89 84 81 82 78 77 74 75 68 77 86 91 93 93 92 93 93 93 92 94 94 94 94 94 92 91 91 94 92 92 90 92 92 89 88 88 87 87 89 91 91 93 94 95 95 93 92 93 93 91 85 84
80 86 90 92 96 95 90 89 93 94 93 91 89 88 85 75 76 77 72 65 75 82 88 90 91 92 94 93 94 93 91 93 94 93 92 91 90 90 91 89 90 91 91 89 87 87 86 86 87 88 89 90 91 91 93 94 94 95 92 91 91 88 85
63 65 65 70 77 83 89 91 92 93 92 90 85 77 76 68 74 76 72 73 77 82 86 88 89 90 89 93 95 96 94 91 93 93 91 90 89 88 89 90 90 89 88 87 87 86 86 86 87 86 86 88 89 89 90 94 94 93 92 93 92 89 89
75 80 80 88 88 88 81 86 88 91 94 94 89 84 78 72 69 73 73 78 78 78 82 85 87 87 88 90 91 90 91 92 92 91 90 90 88 88 89 89 89 88 87 86 86 86 86 86 86 86 87 87 89 87 88 91 92 92 90 90 88 88 88
82 89 85 91 90 86 88 86 87 89 90 90 86 80 77 80 76 68 77 79 76 80 85 87 88 88 88 89 90 91 92 91 91 90 88 86 89 88 88 88 88 87 86 86 85 84 84 85 85 86 87 87 86 85 87 89 91 92 91 87 86 85 85
88 90 91 93 92 92 90 89 89 88 89 89 84 81 85 83 76 73 78 78 77 82 86 88 89 89 88 90 91 93 93 94 92 90 89 88 88 87 87 86 87 87 86 84 83 83 84 85 85 85 86 86 85 86 88 87 90 90 89 86 84 85 84
87 88 89 92 91 89 90 89 88 89 89 87 87 86 89 87 80 83 82 79 79 85 87 90 90 91 91 92 93 93 92 93 91 91 88 88 88 88 87 86 87 87 87 84 83 84 84 84 84 85 85 84 85 84 86 88 88 90 87 84 83 83 83
82 87 90 91 90 86 84 89 90 91 91 89 89 89 89 88 84 85 82 79 79 87 90 90 92 90 91 91 91 92 91 92 93 91 90 88 88 88 87 86 87 87 86 85 84 84 84 84 84 84 84 84 80 85 88 90 87 88 87 84 83 82 82
78 85 89 89 86 86 85 85 88 89 88 85 88 84 89 84 78 81 80 77 78 86 90 93 92 89 88 88 88 89 90 92 91 89 90 89 88 88 87 87 86 85 85 85 84 84 85 84 84 84 83 82 83 85 89 89 90 89 86 84 83 82 82
73 83 86 82 83 82 77 79 86 88 89 90 92 90 89 88 86 78 75 77 85 88 89 87 87 90 89 89 90 89 90 89 88 87 88 89 89 88 87 86 85 86 87 86 85 86 86 85 85 85 84 85 84 86 86 87 88 88 86 85 83 82 82
73 81 83 83 75 65 68 86 93 92 89 88 84 85 87 87 86 83 86 86 88 88 87 86 86 87 87 88 89 90 88 87 87 88 88 89 90 90 89 88 88 87 87 87 87 87 86 87 89 88 86 86 87 88 89 88 87 86 84 84 83 82 82
72 78 79 71 61 66 83 92 94 94 92 90 86 87 89 89 88 87 86 87 87 87 88 88 88 88 90 91 89 90 92 89 88 87 88 87 87 88 88 87 88 86 86 86 86 86 87 89 89 89 88 89 89 88 88 87 86 84 84 83 82 82 82
78 74 73 59 63 79 84 87 91 94 94 92 87 84 88 89 89 87 85 86 88 88 89 91 91 90 90 91 89 88 90 91 90 90 89 89 89 87 88 86 86 85 86 86 87 86 88 89 90 91 89 91 91 88 88 87 86 84 83 82 82 82 82
69 72 72 71 74 74 77 79 83 87 81 85 82 74 80 87 89 89 86 87 88 89 90 91 92 91 91 87 88 93 92 90 92 93 92 93 90 90 89 89 87 87 88 88 88 88 88 89 90 90 92 91 90 89 88 88 86 85 84 82 82 82 82
77 71 64 70 64 61 72 80 88 92 94 92 90 82 79 87 90 91 89 86 86 87 89 90 90 88 83 81 85 92 95 93 90 93 94 95 92 90 90 89 89 87 88 89 89 89 89 89 90 91 92 91 89 87 87 87 87 85 83 83 83 82 82
75 71 65 65 62 69 80 81 87 92 95 93 91 80 73 85 88 91 91 88 88 88 88 88 87 83 78 81 86 91 93 93 95 93 94 95 93 91 90 89 88 88 87 88 88 88 89 88 89 91 90 91 89 87 87 88 88 85 83 83 83 83 83
74 72 68 65 70 71 76 86 91 95 95 94 85 66 69 85 90 92 90 88 88 88 88 89 86 81 77 82 87 93 95 95 95 91 90 90 90 90 90 91 89 87 87 87 87 88 88 87 89 90 90 90 88 87 87 89 87 85 84 84 85 85 85
71 65 71 74 75 79 85 88 92 93 95 88 71 61 75 86 88 89 89 89 90 90 88 88 83 86 87 89 91 96 97 95 93 93 93 92 91 90 92 91 87 87 87 87 88 88 88 88 89 90 90 87 86 86 86 85 84 86 86 86 85 85 84
70 72 69 71 76 81 87 91 92 94 84 69 68 77 85 88 88 90 91 89 90 90 89 89 89 90 94 93 96 95 96 94 91 92 92 92 93 94 91 87 87 88 90 87 88 90 89 89 89 90 87 85 84 85 84 84 85 88 87 86 86 84 83
76 72 68 65 56 70 87 89 88 88 76 75 80 84 87 90 89 89 90 90 90 91 88 91 90 91 95 95 94 94 94 92 90 91 91 90 91 90 87 87 90 91 89 88 89 90 92 92 90 89 87 84 83 83 82 84 86 87 87 86 86 84 83
69 68 62 62 75 81 90 88 73 78 84 85 86 85 86 89 90 89 89 89 90 90 88 88 89 91 91 91 92 92 92 91 92 92 90 90 91 90 93 93 91 93 88 89 90 91 93 92 90 89 86 83 82 82 82 85 86 86 86 85 85 83 82
70 66 68 76 82 87 90 86 83 87 87 89 88 88 87 87 89 90 88 87 89 90 89 87 87 88 90 90 92 90 88 90 91 89 89 90 90 91 92 93 91 91 90 87 88 88 88 87 87 86 85 83 82 81 83 85 85 85 85 84 83 81 81
80 82 82 82 84 85 88 92 91 90 90 91 91 88 85 86 87 88 87 88 89 89 90 87 87 87 89 89 89 89 86 88 90 88 89 89 91 92 92 89 88 89 90 89 88 86 85 85 84 83 84 84 81 81 84 84 84 85 84 83 81 80 80
73 63 78 81 81 84 86 87 88 90 90 89 88 84 84 85 86 87 87 86 86 88 88 87 85 87 90 89 87 85 86 88 87 87 86 87 88 88 86 85 86 87 88 88 87 87 86 87 87 88 86 85 83 83 83 85 85 84 83 81 79 79 78
72 70 77 81 85 83 84 85 82 83 84 86 87 86 86 86 87 87 87 87 87 88 87 87 86 86 90 89 88 88 86 84 85 85 85 85 86 86 85 85 86 86 86 86 85 84 83 84 85 86 87 87 87 87 88 89 89 85 81 80 80 80 80
76 76 78 81 82 82 83 83 82 83 83 84 84 85 86 88 88 87 88 89 88 89 88 88 86 86 87 89 86 85 83 82 86 86 85 84 83 83 83 83 84 83 83 83 82 82 82 83 83 83 84 86 88 88 89 88 85 83 81 79 80 80 80
68 68 69 77 73 73 78 80 82 82 83 84 84 84 85 85 84 85 87 88 89 89 89 88 87 85 87 87 86 86 87 84 86 85 84 84 84 83 84 84 83 81 81 81 81 81 81 82 82 82 82 83 85 88 89 89 86 82 80 79 80 80 80
68 73 76 76 75 76 76 79 81 82 83 83 83 82 82 83 84 86 86 87 86 84 84 84 82 82 85 83 84 85 90 85 85 84 84 83 82 83 84 82 81 80 79 80 80 80 80 80 81 80 81 83 83 85 84 84 83 81 79 78 79 82 82
78 78 78 78 74 73 76 81 81 83 82 82 82 84 84 83 84 84 84 85 85 84 83 84 84 82 81 81 82 79 84 82 84 84 84 84 84 84 84 81 79 79 79 79 80 79 80 80 80 80 82 83 81 84 84 82 81 80 79 78 78 80 81
76 78 79 78 77 78 82 82 83 84 83 82 81 82 82 83 85 84 83 82 84 87 85 84 86 86 84 82 84 81 80 84 84 83 82 81 83 83 84 83 80 79 79 80 80 80 79 79 79 80 80 80 81 83 81 82 81 79 78 78 79 81 80

ECMWFFLT2_sfc_temp_021.txt.gz
Temp
88 89 92 91 91 66 73 77 65 68 80 76 64 68 72 70 64 59 72 68 72 75 77 82 81 82 82 82 82 84 83 83 82 81 83 84 84 83 83 83 81 81 82 82 82 81 81 81 80 79 78 78 78 77 76 75 75 75 75 76 75 75 75
87 93 92 92 93 90 79 69 71 84 88 83 69 57 61 58 52 56 68 63 61 65 57 72 78 79 79 78 79 83 82 83 82 81 82 83 83 82 83 83 82 83 82 82 83 82 82 82 81 79 78 78 78 78 77 76 76 74 75 75 75 74 74
89 94 92 88 92 93 79 79 90 76 62 65 65 63 54 54 53 55 60 65 65 65 64 73 73 76 75 76 78 79 79 81 79 79 81 82 81 82 82 82 81 82 81 82 82 82 83 82 81 80 79 79 78 78 78 78 76 76 76 77 76 75 75
88 89 86 70 77 87 90 89 83 88 74 67 61 62 60 56 51 53 55 65 58 68 66 74 74 76 76 77 76 79 81 79 78 78 81 82 79 80 81 82 81 82 83 84 83 83 83 81 81 80 81 81 80 79 78 77 77 76 76 76 75 75 75
87 73 79 75 75 70 73 76 72 78 78 78 75 69 67 55 50 49 52 51 57 64 74 77 76 76 77 78 76 73 79 81 81 80 81 79 78 80 82 82 82 83 83 84 84 84 83 82 82 82 82 81 81 80 78 79 76 76 76 76 76 75 75
74 74 85 86 85 83 76 73 70 72 69 65 63 56 77 69 55 49 54 53 57 72 78 75 76 78 78 77 77 75 78 79 78 81 81 80 78 79 82 83 84 84 84 83 84 83 82 82 82 82 82 82 82 80 80 80 79 78 78 76 76 75 75
76 83 87 92 91 89 86 82 75 80 74 73 66 50 55 70 65 72 60 53 56 72 77 77 78 81 82 79 78 77 78 79 81 81 81 81 81 81 83 84 85 84 83 83 82 81 81 81 81 82 81 82 82 81 81 81 80 79 80 78 77 75 75
83 88 90 91 91 90 84 84 85 81 77 76 68 59 64 62 63 60 59 52 58 67 73 75 78 77 80 78 79 77 77 80 81 81 79 79 80 81 84 85 84 83 83 82 79 79 79 79 79 80 81 81 82 82 82 82 81 80 81 79 78 76 75
66 75 77 82 88 87 78 74 78 84 84 84 80 74 68 65 64 64 56 48 57 71 74 76 78 79 81 82 81 79 78 77 80 78 77 77 79 80 82 82 81 81 81 78 78 78 78 78 79 79 80 81 81 81 82 82 82 82 81 80 79 77 76
50 52 52 55 66 73 77 80 81 81 81 79 72 65 62 56 59 64 53 56 61 70 73 75 76 76 75 78 80 83 79 76 77 77 77 77 77 78 81 81 80 79 80 79 77 77 77 78 78 78 78 80 81 80 82 84 83 82 82 81 80 78 78
55 54 60 73 79 75 72 78 80 81 83 80 75 67 60 53 50 60 54 64 62 67 70 72 73 76 76 77 77 76 77 77 77 76 75 77 78 77 80 79 80 80 77 77 77 77 77 78 78 78 78 80 80 77 81 84 83 82 81 80 79 77 78
69 75 75 82 83 78 79 78 78 81 80 79 75 66 65 60 59 49 56 64 65 68 71 71 73 73 73 74 74 77 78 76 79 77 76 79 78 77 79 78 78 77 77 77 76 76 77 77 77 78 78 80 80 78 79 83 83 83 82 79 78 78 77
77 80 81 83 82 82 81 82 82 80 81 78 74 67 74 68 62 57 62 64 65 70 73 74 75 75 76 77 76 79 78 77 76 76 77 77 78 78 78 78 78 77 76 75 76 76 76 77 77 77 78 78 79 78 79 77 82 82 78 78 77 77 76
79 80 81 82 80 80 80 80 80 81 81 79 79 76 75 73 65 69 67 64 67 74 75 78 78 79 79 78 79 79 79 79 76 77 75 77 78 78 77 77 78 78 77 76 76 76 76 77 77 77 77 78 78 78 77 78 76 77 77 76 76 76 74
70 77 81 82 80 76 75 77 80 81 79 79 79 79 81 78 69 71 69 66 66 76 80 78 76 76 78 78 79 80 76 77 79 76 76 76 78 78 79 76 78 78 77 77 76 76 77 77 78 78 77 77 77 79 79 77 75 76 77 75 74 74 73
66 75 78 80 81 79 77 76 77 78 79 75 76 70 76 71 69 67 67 63 64 73 77 79 77 77 76 74 73 74 74 76 75 76 75 74 74 77 78 77 77 76 77 76 76 76 77 78 78 78 76 76 77 77 77 76 75 75 74 74 73 72 74
60 72 77 76 77 75 69 70 77 79 79 76 78 79 81 78 77 67 62 62 70 74 77 76 74 76 74 73 72 71 73 73 75 75 76 77 77 76 76 76 76 77 78 78 78 78 79 79 78 78 77 76 76 74 74 73 73 74 73 72 72 72 72
61 72 74 73 65 56 55 73 79 78 76 75 74 76 79 78 77 69 74 74 76 77 76 74 72 73 74 75 75 77 75 73 74 77 78 78 79 76 78 78 77 77 77 78 78 79 79 80 80 79 79 77 74 74 73 71 70 71 73 73 73 72 73
59 64 66 60 54 56 67 77 80 82 81 79 75 74 76 77 75 76 75 75 74 72 75 75 75 75 75 77 76 77 77 73 73 73 74 75 76 76 75 76 78 75 76 77 77 77 78 80 79 78 76 74 74 72 71 71 72 71 71 73 73 73 73
64 60 55 46 50 66 75 76 79 81 80 77 75 69 74 77 77 74 76 76 76 75 76 75 75 75 76 75 73 76 78 78 77 77 75 75 77 76 76 75 75 77 77 77 78 78 79 80 80 78 75 76 75 72 73 73 70 70 71 73 74 74 73
57 57 55 55 65 68 69 71 73 77 71 72 68 61 64 74 77 75 72 72 75 76 76 76 77 78 77 72 75 80 81 77 80 82 80 81 79 81 77 78 77 80 80 79 80 79 80 80 79 77 76 77 75 72 72 70 70 71 72 73 74 74 74
64 56 52 55 56 51 60 70 79 83 85 83 78 68 63 71 74 77 74 74 74 75 76 75 75 74 69 66 71 76 82 81 78 81 83 85 81 79 79 77 79 78 80 81 80 81 80 80 79 77 77 76 74 72 71 71 72 72 73 74 74 74 74
64 59 54 53 51 56 67 70 78 82 82 83 77 70 57 67 73 76 78 75 74 74 75 74 73 68 61 66 72 77 79 84 86 81 83 84 81 80 79 80 78 79 79 80 80 80 80 79 77 77 77 77 75 74 74 74 75 74 74 74 74 74 74
59 56 54 52 61 59 65 76 78 81 81 80 69 53 52 68 71 77 78 77 77 76 74 75 72 68 64 66 71 83 85 84 81 81 78 77 79 79 79 79 78 78 78 79 79 79 79 78 78 77 78 77 76 75 75 76 76 74 73 74 75 75 75
58 59 57 61 61 66 74 78 80 79 83 72 53 45 60 71 73 76 79 78 78 76 75 72 68 70 70 75 79 83 83 84 80 80 81 80 80 80 81 79 78 77 76 78 79 79 79 79 78 78 78 77 76 76 75 74 74 75 76 75 74 75 74
57 56 58 56 63 68 75 77 81 81 76 55 54 67 71 72 75 76 78 78 77 77 76 73 72 75 79 82 82 82 82 79 77 79 80 81 82 82 80 78 78 77 77 76 77 79 78 79 79 79 78 76 76 76 75 75 76 77 76 75 75 75 74
57 53 51 47 46 57 78 78 72 73 62 61 66 70 74 77 75 77 76 76 76 77 75 77 76 78 81 81 80 79 79 79 77 78 79 78 78 78 77 77 78 79 76 76 78 79 81 82 81 80 79 77 76 76 75 75 76 76 76 77 76 75 74
49 48 46 45 59 66 80 76 60 67 70 70 71 71 69 74 75 74 73 74 76 77 75 76 77 78 78 76 77 78 78 80 77 77 76 75 75 76 79 80 78 76 71 68 66 73 79 79 79 79 78 76 75 74 74 75 75 75 74 74 74 73 73
58 55 57 64 69 71 76 74 72 74 74 77 76 76 74 73 73 75 75 74 76 77 76 75 75 75 77 76 78 78 77 76 76 74 74 75 75 74 73 70 69 69 68 66 66 66 71 76 77 77 77 76 75 74 74 75 75 74 74 74 74 73 72
66 71 69 74 73 75 76 79 78 79 79 80 78 76 73 72 73 75 75 76 76 77 75 74 72 73 74 75 77 77 76 74 73 74 74 73 73 72 72 70 68 67 67 68 67 67 68 73 75 76 77 77 74 74 75 75 75 74 73 72 72 72 72
53 45 61 64 70 73 75 76 79 81 81 78 76 73 72 74 76 77 76 74 75 78 77 75 74 74 75 74 73 72 72 71 71 71 71 70 70 70 69 68 68 67 67 66 67 67 68 71 73 76 78 77 76 75 75 75 75 73 72 71 71 71 72
56 52 60 61 65 71 72 72 71 73 76 78 78 76 77 77 77 78 77 78 77 79 75 73 73 72 74 72 70 69 69 68 67 67 68 68 68 67 68 69 68 67 66 66 67 67 66 69 75 77 78 77 77 76 78 79 76 73 72 72 72 70 71
57 64 65 67 66 69 72 75 73 73 74 74 74 77 78 78 77 76 77 78 77 77 75 74 73 71 71 72 70 70 68 67 67 67 67 67 67 67 68 68 68 66 67 67 67 66 66 69 73 74 75 78 81 77 76 74 72 73 72 72 70 69 69
54 53 57 64 58 59 65 67 69 70 74 75 73 74 76 76 74 74 76 76 77 78 76 75 74 71 69 70 71 70 68 66 65 65 66 65 67 67 68 69 69 68 68 67 67 67 67 68 71 72 73 75 78 79 76 75 72 72 71 71 70 71 70
51 63 67 67 66 65 67 70 72 73 75 74 74 72 73 74 74 75 74 75 74 74 75 76 73 71 71 70 70 70 68 67 67 67 66 66 66 67 68 69 68 67 67 69 69 69 70 70 71 72 72 72 72 73 73 73 73 71 69 68 67 70 70
69 71 69 69 66 65 70 73 72 72 72 74 74 75 74 74 73 75 74 73 72 72 73 76 76 74 72 72 71 68 67 67 66 67 67 68 68 68 69 69 68 68 68 69 69 69 68 69 69 70 71 71 72 75 73 72 72 70 68 66 67 67 68
66 72 71 71 70 71 73 73 73 74 74 74 73 72 73 74 75 75 73 71 73 75 74 74 75 74 73 72 70 68 68 68 68 68 69 69 70 69 70 70 68 69 69 69 69 69 69 68 68 68 70 71 71 73 72 72 71 69 67 67 68 69 67

ECMWFFLT2_sfc_temp_024.txt.gz
Temp
81 84 83 82 83 63 67 72 63 64 69 72 57 57 59 59 54 52 50 61 60 64 68 66 71 73 75 77 78 79 77 79 78 78 78 79 79 80 80 80 79 79 79 79 80 79 79 79 78 78 77 77 76 75 74 74 73 73 73 73 72 73 72
81 86 85 84 86 72 68 66 67 72 74 69 58 52 47 49 46 47 57 56 55 60 53 63 69 70 72 75 77 80 78 77 76 78 78 78 79 80 80 80 80 80 79 79 80 80 80 79 79 78 77 77 77 76 75 74 73 72 73 73 73 73 72
82 84 82 80 82 84 78 74 76 74 58 62 57 54 50 49 48 46 48 55 54 55 55 63 64 69 69 74 76 78 76 76 76 77 78 78 79 79 79 79 78 78 78 79 80 80 81 80 79 79 78 77 77 76 76 76 74 74 74 75 74 74 73
80 81 78 66 74 80 80 79 76 74 69 60 55 59 52 54 44 49 47 54 51 60 55 64 68 70 72 73 73 76 77 77 77 78 78 77 77 77 79 79 79 79 79 81 81 80 80 79 79 78 78 78 78 77 76 75 75 74 74 74 74 73 73
78 68 71 70 72 70 69 71 67 72 71 67 68 62 59 57 43 44 43 49 45 55 61 67 71 70 71 74 73 74 76 78 79 78 78 77 77 77 79 79 79 79 80 81 81 81 81 80 80 79 79 78 78 77 76 76 74 73 73 74 74 73 73
64 65 76 81 78 79 72 71 66 69 64 61 58 52 62 57 53 41 46 47 45 59 68 68 70 70 73 74 75 75 77 77 76 77 79 79 77 77 79 80 80 80 80 81 81 81 80 79 79 78 78 78 78 77 77 77 76 75 75 74 74 73 72
68 76 81 84 85 83 77 78 70 73 65 59 57 49 51 58 58 57 53 50 50 61 65 70 72 72 77 76 77 75 75 76 77 78 81 80 79 78 80 80 81 81 80 80 80 79 78 79 78 78 78 78 78 78 78 77 76 76 77 75 74 73 72
69 78 83 83 83 82 74 74 72 72 67 66 60 55 51 58 53 55 49 44 52 56 65 70 72 70 73 74 76 75 75 76 76 77 77 74 73 76 80 81 81 80 80 79 78 78 77 77 77 77 77 78 78 78 78 78 77 77 77 76 75 73 72
59 65 69 74 78 79 70 64 72 75 72 71 64 61 57 60 55 57 50 44 53 63 65 71 72 74 76 75 76 77 75 74 75 75 75 74 75 74 76 77 77 77 78 77 77 77 77 77 77 77 77 77 78 77 78 78 78 78 78 76 75 74 73
47 47 46 50 57 63 68 69 73 77 76 71 65 63 60 52 52 53 49 51 50 58 67 68 72 74 74 75 76 79 77 75 75 75 74 73 73 73 75 75 75 76 77 77 77 77 77 77 77 77 77 77 77 78 78 79 78 78 78 77 76 74 74
51 56 52 61 66 65 69 70 74 73 76 74 66 52 52 56 47 57 48 62 59 64 67 66 69 72 72 71 72 73 73 74 75 74 74 73 73 73 74 74 76 76 75 75 76 77 77 77 77 77 77 77 78 77 77 79 79 78 77 76 75 74 74
67 66 56 65 74 73 74 71 73 74 73 70 67 62 57 54 55 48 48 55 63 65 69 67 69 70 71 72 74 75 75 74 74 74 73 76 73 74 75 74 73 75 75 75 75 76 76 76 77 77 77 78 77 77 77 78 79 78 78 76 75 74 74
72 75 74 73 75 77 77 76 76 74 73 68 67 59 61 59 62 56 59 58 64 67 71 72 73 74 74 75 76 78 78 76 73 71 73 73 74 73 74 74 74 75 75 75 75 75 76 76 76 76 76 77 77 77 78 78 79 78 77 75 74 74 74
71 71 73 74 74 75 77 78 75 73 72 69 69 66 64 67 59 62 65 61 66 72 74 75 75 76 76 74 76 75 74 75 73 73 73 75 75 75 74 74 75 75 76 76 75 75 74 75 75 75 75 76 76 76 77 78 78 78 76 75 74 74 73
69 74 74 73 74 75 72 71 73 75 72 71 68 69 68 66 65 61 65 61 62 68 73 75 71 68 71 72 73 75 74 73 74 74 74 74 76 76 76 75 75 76 75 75 75 74 74 74 75 75 75 76 76 77 78 78 77 77 76 75 74 74 73
63 71 72 72 71 73 72 68 69 69 69 67 66 67 68 66 61 59 63 60 61 69 69 69 68 68 72 73 72 72 71 73 73 74 73 72 73 74 75 75 75 75 75 74 73 73 74 75 75 75 75 75 76 76 76 77 77 76 76 75 74 73 74
57 67 70 70 69 67 65 63 66 67 69 67 70 72 72 71 66 59 58 62 71 71 71 71 67 70 71 71 69 69 68 69 72 71 71 71 72 73 73 73 74 75 76 75 74 75 75 75 75 76 76 76 75 76 74 74 75 75 75 75 74 73 73
51 64 67 64 57 51 55 62 73 73 71 71 70 67 67 65 63 61 68 68 66 69 71 71 67 68 69 70 68 72 72 69 68 69 70 71 72 72 73 73 74 75 76 76 76 76 76 76 78 78 77 77 77 76 75 73 74 74 74 74 74 73 73
55 58 61 59 52 49 60 66 75 77 76 75 70 68 68 69 66 67 67 67 68 68 70 69 68 69 70 71 72 71 73 73 73 73 72 73 73 74 74 74 74 73 74 75 75 74 75 77 77 76 75 75 74 73 73 72 72 73 73 73 72 72 71
56 51 48 50 49 57 67 71 73 75 74 71 72 68 69 68 68 68 68 67 71 72 73 74 72 70 68 69 70 70 70 74 75 73 72 73 73 73 73 73 73 74 74 75 75 75 77 77 76 76 75 74 74 73 72 73 72 72 72 72 71 70 70
52 51 46 51 55 61 62 68 67 69 68 66 65 57 64 67 66 68 68 68 69 72 74 73 70 70 72 69 73 72 72 71 73 77 77 77 74 75 73 74 75 75 76 76 77 76 76 76 76 75 74 74 74 72 72 71 70 69 69 68 68 68 68
49 49 44 45 43 48 53 59 69 72 74 73 67 61 60 66 71 69 69 67 69 69 70 71 70 71 71 64 69 73 76 73 71 71 73 75 74 73 73 72 74 74 74 75 74 75 75 76 76 75 74 74 73 72 70 68 68 68 71 69 68 69 70
50 45 38 45 44 52 52 63 70 72 72 78 70 60 54 66 69 68 68 71 71 71 72 69 68 69 61 61 67 70 72 74 77 76 75 76 75 75 76 76 74 73 74 74 74 74 74 74 74 74 74 74 73 71 69 69 68 66 68 68 69 70 71
48 45 46 48 52 55 62 67 69 73 72 70 66 56 50 61 67 67 69 71 68 66 66 68 67 67 64 62 67 74 74 75 76 77 74 73 73 74 73 74 75 74 73 73 73 74 74 74 74 74 74 73 71 70 69 69 67 68 69 71 72 73 73
49 51 50 50 54 60 67 70 73 74 73 61 49 44 56 64 65 68 68 69 67 66 66 66 66 66 63 66 67 74 75 74 73 74 76 75 76 75 75 74 75 73 73 74 73 73 71 71 71 70 69 67 67 67 68 68 69 70 72 73 73 73 72
47 47 46 47 54 65 70 73 74 73 71 50 49 60 61 66 67 67 70 70 69 70 68 67 67 69 72 72 75 74 73 72 72 73 75 76 75 75 75 74 73 73 73 72 71 69 68 69 68 67 67 67 67 66 66 66 69 73 73 73 73 72 71
49 46 44 42 42 56 71 71 68 66 60 58 64 68 68 70 67 68 68 69 68 71 69 69 68 70 72 73 72 72 71 71 72 73 74 73 73 72 72 73 74 74 71 70 69 67 68 69 68 68 68 67 66 67 65 68 72 74 74 73 72 72 71
44 43 41 44 55 61 71 68 59 63 64 65 65 67 67 69 70 70 68 68 68 70 71 70 71 71 71 71 70 71 70 71 71 71 70 70 70 69 70 71 70 70 67 67 67 68 68 68 68 68 67 66 66 66 66 71 73 73 72 72 72 71 71
49 49 51 57 61 64 68 69 68 69 71 72 71 70 69 69 69 70 70 69 71 71 72 71 71 71 70 69 70 70 69 70 70 69 68 68 68 67 67 68 68 69 68 66 66 66 66 67 67 68 68 67 68 67 68 72 73 73 73 72 72 71 70
62 63 61 62 62 65 67 70 71 70 71 72 72 70 68 68 68 69 69 69 70 72 72 72 69 68 68 69 69 69 69 68 67 67 67 66 66 66 66 65 67 67 67 66 66 65 65 67 67 68 68 69 67 66 68 69 70 69 69 69 70 70 69
49 49 60 60 61 63 64 66 68 70 70 69 69 67 67 68 70 70 70 70 69 70 70 70 69 69 69 68 66 65 65 66 65 66 66 65 65 65 65 66 68 67 67 66 66 66 66 66 67 67 67 67 66 66 66 66 69 70 68 68 69 68 68
51 53 56 61 64 63 62 63 63 64 66 68 68 67 65 65 67 70 70 71 71 72 70 68 68 67 68 67 64 65 64 64 64 63 63 63 64 64 64 65 66 66 66 66 66 65 64 65 67 67 67 67 67 67 67 67 71 70 70 69 69 68 68
55 59 61 62 63 65 65 64 61 63 64 65 66 69 69 70 70 70 72 74 72 70 68 68 67 66 64 66 65 65 63 63 63 62 62 62 62 63 63 64 64 65 65 65 64 64 64 64 66 66 67 68 70 69 71 72 70 69 68 70 69 68 68
52 52 56 62 58 57 60 64 65 63 65 65 64 65 66 65 65 64 65 71 73 73 70 69 69 66 63 64 64 65 63 63 62 62 62 62 62 63 63 64 64 65 64 64 64 64 64 64 65 66 66 68 71 73 70 68 66 68 68 69 69 69 67
52 59 62 61 61 60 62 65 66 65 66 67 68 67 67 67 68 69 69 70 72 72 72 70 68 65 64 63 63 64 64 63 63 64 63 63 63 63 64 64 63 64 64 65 65 65 65 66 67 66 66 68 66 67 67 67 68 68 68 67 66 66 65
63 65 64 62 59 59 62 65 66 66 66 68 69 69 68 69 69 70 70 69 68 69 70 70 70 66 64 65 65 64 63 63 63 63 63 64 65 66 66 66 65 65 65 65 66 66 65 65 66 66 65 64 65 67 67 68 68 67 66 66 65 63 61
64 66 66 66 66 66 66 66 66 66 68 69 68 69 70 69 71 70 69 68 69 70 68 68 69 66 65 66 65 65 64 64 65 65 65 65 66 66 66 66 66 66 66 66 66 65 64 63 64 65 64 65 64 67 68 69 68 67 65 64 63 62 62

ECMWFFLT2_sfc_temp_030.txt.gz
Temp
68 69 70 71 74 58 58 63 57 59 64 66 49 51 51 49 46 47 46 53 53 60 69 75 65 67 71 72 72 71 72 71 71 73 74 74 75 76 76 76 76 76 76 76 77 77 77 77 76 76 76 76 76 76 76 75 75 75 74 73 73 73 72
69 70 73 73 75 68 61 56 62 62 63 61 57 49 40 41 42 42 47 54 52 54 52 58 66 67 72 71 73 74 70 68 70 73 73 74 75 76 76 77 77 77 77 77 78 78 78 77 77 76 76 77 77 77 76 75 75 74 73 74 73 73 72
68 70 71 70 72 71 74 62 67 67 53 56 48 48 44 43 42 41 45 51 49 54 57 55 64 68 71 72 71 69 69 69 71 73 73 74 76 76 75 76 76 76 76 77 77 78 79 78 78 78 78 78 77 77 77 77 76 76 74 74 74 73 72
65 67 67 62 67 71 67 69 66 64 62 47 51 55 49 53 41 41 44 48 48 55 60 66 69 70 72 74 71 69 72 72 73 73 73 73 74 75 75 76 76 77 77 78 78 78 78 78 78 78 78 78 78 77 77 76 77 76 74 73 73 72 72
65 58 60 66 68 58 61 63 57 63 63 59 57 55 49 50 41 41 41 43 43 52 63 67 72 71 72 73 72 71 72 73 75 75 74 73 74 75 75 76 76 77 77 78 79 79 79 79 79 79 79 78 78 78 77 77 76 75 74 74 73 73 72
56 56 61 68 67 68 63 64 62 61 55 57 54 52 53 46 49 37 40 48 44 60 62 68 71 73 73 73 73 74 73 74 74 74 74 74 74 75 76 77 78 78 77 78 79 79 78 78 78 78 79 78 78 78 78 78 77 76 75 73 73 72 72
63 64 68 66 69 71 70 71 67 68 63 58 52 45 47 50 51 49 45 47 53 59 59 67 71 65 66 68 68 71 73 72 72 74 75 75 76 76 77 78 78 78 77 77 77 77 77 77 77 78 78 78 78 78 78 78 77 77 77 75 74 73 72
59 66 66 67 67 68 67 66 65 64 64 65 63 58 50 54 47 51 50 49 43 50 54 57 60 58 60 63 67 70 71 70 70 72 73 73 73 74 77 78 78 77 77 76 75 75 75 75 76 76 77 78 78 78 78 78 77 77 77 76 75 73 72
54 59 61 63 63 66 60 60 62 64 63 64 57 53 49 58 50 55 50 44 47 54 54 56 57 59 62 65 67 68 69 68 69 71 71 72 73 73 73 74 74 73 74 73 73 74 74 75 76 76 77 77 77 77 78 78 78 78 77 76 75 73 73
42 42 47 52 57 56 54 57 62 64 67 62 59 57 54 50 47 50 47 43 48 55 55 60 62 60 60 63 66 69 69 68 69 70 71 71 72 72 71 71 70 72 72 73 73 74 74 75 76 75 76 77 77 77 78 79 78 78 77 76 75 74 73
52 53 49 51 53 53 61 60 65 63 65 67 66 51 49 54 41 51 44 52 55 60 65 64 63 60 64 64 63 66 68 69 69 70 71 72 71 70 70 70 71 70 70 71 73 73 75 75 75 76 76 77 77 76 77 78 78 77 76 75 73 73 73
63 64 61 59 63 62 61 63 62 65 65 62 62 57 57 49 50 44 43 43 59 61 63 64 63 61 60 61 64 67 68 69 70 70 69 72 69 68 68 68 68 70 71 71 72 72 74 74 75 76 76 77 76 76 76 77 78 77 76 74 73 73 73
64 67 67 63 61 64 62 63 64 62 62 59 62 59 60 54 60 58 55 47 57 62 66 69 68 67 67 67 68 70 71 69 67 67 69 70 70 69 69 69 68 69 69 70 71 72 73 74 74 75 75 75 75 75 76 76 77 76 76 74 73 73 72
64 64 64 64 62 62 63 64 63 63 62 61 64 64 62 62 59 62 62 51 61 67 69 70 71 70 71 69 66 66 68 70 69 69 69 71 71 71 70 69 69 69 71 71 71 71 72 73 73 74 74 74 75 75 75 76 76 76 75 73 73 72 72
60 64 64 63 62 62 63 65 66 64 62 62 63 64 61 59 59 58 58 53 57 64 66 72 66 61 62 63 68 70 69 67 69 69 70 71 72 71 70 68 69 70 70 70 70 70 71 72 73 74 74 74 74 75 76 76 75 76 75 73 73 71 67
52 59 61 62 61 61 61 63 64 62 59 57 57 59 58 58 58 55 54 52 57 65 62 64 61 63 66 67 66 67 67 67 68 69 71 71 69 69 69 69 69 69 69 69 70 71 72 72 73 73 73 74 74 74 75 75 76 76 74 73 70 67 67
48 59 60 61 58 58 53 56 62 62 61 61 59 63 61 64 63 56 55 58 66 71 65 65 62 65 67 68 65 66 66 67 70 71 71 69 69 70 69 69 69 70 71 71 71 72 72 72 73 74 75 74 73 74 74 75 75 74 74 71 68 67 68
43 55 57 56 52 46 46 52 62 66 64 63 63 62 64 59 62 60 64 66 63 60 62 68 67 64 67 71 70 71 71 68 66 66 68 70 71 71 71 71 72 71 71 70 71 71 71 72 75 75 75 75 75 75 75 74 74 73 72 69 68 68 68
47 48 53 50 46 45 50 55 60 61 68 69 68 59 58 59 56 58 60 60 59 63 68 70 71 69 66 66 66 66 68 68 69 69 69 68 69 69 69 69 70 69 69 69 69 69 71 73 73 73 74 75 74 73 74 73 73 72 70 68 68 68 68
47 50 48 43 40 47 56 63 63 64 65 63 63 60 60 59 58 56 56 59 59 59 62 64 61 63 63 63 63 64 67 71 72 71 70 70 70 70 70 70 70 69 69 70 71 70 72 73 73 74 75 75 74 73 73 73 72 71 69 68 67 67 67
47 41 42 47 48 57 61 60 60 60 58 59 58 53 59 59 60 57 55 56 57 59 61 61 62 65 68 66 70 67 66 67 69 72 73 72 71 72 70 72 71 70 70 71 72 71 71 72 73 73 74 74 74 72 72 71 71 69 69 68 67 67 67
41 44 43 48 48 45 50 53 62 65 66 64 61 58 58 59 60 58 57 57 57 58 60 62 63 66 66 64 64 66 67 66 67 68 69 70 70 69 69 68 68 68 69 69 70 71 70 71 72 72 73 73 72 70 70 70 69 69 69 67 68 68 68
47 46 41 36 39 46 49 56 61 65 63 65 61 58 56 61 58 59 58 59 59 61 61 62 66 67 61 60 61 68 64 67 68 69 68 69 68 67 68 69 68 67 68 69 70 69 69 70 69 71 71 71 71 69 69 69 69 68 68 68 68 69 69
43 37 38 43 43 53 58 58 60 64 64 65 62 51 52 54 60 59 60 60 62 61 62 62 62 64 65 60 65 66 67 67 67 67 68 67 68 68 67 68 68 68 70 70 68 69 69 69 68 70 71 71 70 68 68 68 68 68 68 69 70 70 69
44 46 41 41 50 55 55 59 62 63 64 62 56 49 55 59 58 61 62 62 62 62 64 63 61 62 62 63 65 66 67 69 68 67 68 68 69 69 69 69 70 68 68 68 68 68 67 67 68 69 70 69 68 68 67 67 67 68 69 69 69 69 68
45 42 43 43 44 51 58 61 60 61 63 52 46 55 59 58 60 62 65 65 65 67 66 66 63 63 65 67 68 68 67 66 65 66 68 69 69 69 70 70 69 68 68 66 66 65 65 67 67 68 68 68 67 67 66 67 68 68 68 68 68 68 68
46 40 42 46 46 53 60 58 59 57 52 50 55 59 59 61 61 63 62 63 63 66 64 65 65 66 66 66 66 65 66 66 66 66 66 66 66 67 68 68 69 69 66 65 65 65 66 67 67 67 68 68 67 67 66 67 66 67 68 68 68 67 67
44 41 43 43 50 53 61 57 53 57 57 60 58 61 60 60 62 63 63 63 63 66 67 66 66 67 67 66 66 66 64 65 66 65 65 65 66 66 67 67 66 67 65 64 64 65 66 66 66 66 67 67 66 66 64 65 66 67 67 67 67 67 67
47 46 45 51 53 56 59 59 58 59 61 62 61 61 62 62 62 62 65 63 65 67 67 67 68 67 65 65 66 66 64 64 64 63 63 64 64 64 64 65 66 66 66 65 64 65 65 65 66 66 67 66 67 65 63 66 66 66 66 66 66 66 66
55 57 56 57 56 58 57 61 62 63 63 63 63 63 62 60 61 62 63 62 64 65 67 67 64 65 65 66 66 66 65 64 63 64 64 64 64 65 65 65 66 65 65 65 65 64 65 65 65 66 65 66 66 64 64 66 66 66 66 66 66 65 66
50 45 56 57 58 58 59 60 61 63 63 62 63 62 61 61 63 64 64 63 63 64 66 65 64 64 65 64 63 63 65 65 63 64 63 63 63 63 64 66 67 65 65 64 64 65 65 65 65 65 65 65 65 65 65 65 66 66 66 65 65 65 66
48 50 55 57 59 58 58 57 59 61 61 62 62 61 61 61 63 63 63 65 65 66 65 64 65 64 65 66 64 64 63 64 64 63 63 63 63 62 63 65 65 64 65 64 65 65 65 64 65 65 65 65 65 66 66 67 67 66 66 66 65 66 66
54 58 58 57 58 59 59 60 59 59 59 60 62 62 63 65 64 64 65 65 64 64 62 62 63 63 62 63 63 65 62 62 62 63 62 62 62 63 63 64 65 63 64 65 65 65 65 64 65 65 64 65 66 65 67 68 67 67 67 68 67 66 66
51 52 53 56 52 51 56 59 60 60 61 61 61 62 63 63 62 63 64 63 64 64 63 62 62 61 61 61 62 64 62 62 62 61 61 61 61 61 62 63 63 64 65 64 64 64 64 64 64 64 64 65 66 68 67 66 66 66 66 66 65 65 66
47 54 58 55 56 57 56 59 60 60 61 62 63 62 62 62 62 63 64 64 63 64 63 63 62 61 61 61 62 62 62 62 61 61 61 61 61 61 62 63 62 63 63 64 64 64 63 64 64 64 64 65 65 66 65 66 67 66 66 65 65 65 65
55 57 56 57 56 54 56 58 59 61 61 62 62 63 63 63 63 64 63 62 62 61 63 64 64 63 63 63 63 62 62 62 62 62 61 62 61 62 62 62 62 62 63 63 63 63 63 64 64 64 64 64 64 65 65 65 66 65 65 63 62 63 64
52 56 57 58 58 58 59 59 59 60 61 63 62 62 63 63 64 64 63 61 62 63 62 62 62 63 63 63 63 62 62 63 63 64 64 63 64 63 62 63 62 62 63 63 62 62 63 63 63 64 64 63 64 66 65 66 65 64 63 62 62 61 62

ECMWFFLT2_sfc_temp_033.txt.gz
Temp
80 83 82 81 85 67 73 74 69 75 83 81 65 63 64 66 65 62 67 67 72 78 81 86 87 85 85 86 86 86 85 85 83 83 84 85 85 85 85 85 85 84 84 84 84 84 84 84 84 83 82 82 82 82 82 81 81 82 81 81 81 81 81
79 85 85 85 84 85 75 69 75 76 80 81 72 64 60 63 60 61 64 65 69 70 68 81 80 81 85 86 84 87 84 83 81 83 83 83 84 84 85 84 84 84 84 84 85 86 86 85 85 83 82 83 83 83 83 82 81 81 82 81 81 81 81
82 80 80 81 85 84 81 78 85 76 64 64 65 67 55 56 55 60 62 67 70 72 72 81 83 84 85 85 86 85 82 82 82 83 83 83 85 85 84 85 84 84 85 85 84 86 87 86 84 84 83 84 84 84 84 84 82 83 83 83 82 81 81
78 78 78 68 76 79 78 81 80 82 79 70 64 67 68 67 60 58 61 61 63 72 77 82 83 85 85 86 86 85 85 82 82 83 84 83 83 83 84 85 85 85 86 87 87 86 87 85 84 85 86 86 86 85 83 83 84 83 83 82 81 80 81
76 69 74 73 77 72 73 75 74 74 76 78 79 74 70 66 62 60 61 58 66 74 80 82 84 85 86 87 86 86 87 86 85 84 84 83 83 83 84 85 85 86 86 88 88 88 88 87 86 87 88 87 87 87 85 85 83 83 83 82 82 81 81
68 74 79 80 81 82 78 76 73 76 71 67 63 62 70 68 67 55 60 60 70 80 82 80 84 86 88 89 87 87 89 90 86 85 86 84 83 83 84 86 87 87 87 87 88 88 87 87 87 87 88 87 87 87 87 87 87 85 86 83 81 81 80
72 77 81 81 84 85 83 81 77 80 79 77 69 58 62 67 68 69 68 65 69 84 83 82 83 86 89 90 88 85 87 87 87 85 87 85 84 84 86 86 88 88 86 86 86 84 84 84 84 85 86 87 87 87 87 87 86 86 88 86 83 81 80
76 79 78 77 78 81 79 80 83 80 75 78 74 72 70 69 66 65 65 61 71 83 72 76 82 82 82 79 80 82 86 86 85 83 84 82 81 83 86 86 88 86 86 85 83 82 82 82 83 84 85 85 86 87 88 88 87 87 87 87 84 81 80
65 71 75 75 76 77 76 75 79 81 81 81 79 74 66 67 68 70 65 58 68 81 72 72 73 78 80 83 84 80 80 82 84 83 81 81 81 81 83 83 83 84 84 82 81 81 81 81 83 83 83 84 86 86 87 88 88 88 87 87 85 82 81
51 50 53 59 64 69 75 75 75 76 79 76 70 66 65 60 65 69 66 67 75 81 75 77 78 78 78 81 82 84 81 80 81 81 81 79 80 79 81 81 82 82 81 81 81 81 81 82 82 82 82 84 85 85 86 88 88 87 87 87 85 83 82
61 65 68 73 75 72 69 72 74 75 78 79 77 72 67 64 63 64 67 72 74 76 81 79 81 78 80 83 84 81 81 81 80 79 79 80 79 79 81 80 81 80 80 80 80 81 82 82 82 83 83 84 85 84 84 87 87 87 86 85 83 82 82
70 74 73 74 75 73 74 74 74 77 76 76 74 69 67 69 65 61 67 67 72 76 80 81 81 81 79 80 82 84 81 80 81 79 78 79 80 80 79 79 79 79 79 79 79 80 81 81 82 83 84 84 84 83 84 85 87 87 86 83 81 80 78
73 77 77 76 74 77 77 77 77 75 76 74 72 70 74 69 68 65 70 65 68 76 83 85 84 83 81 83 83 84 83 81 79 77 78 79 80 79 79 78 78 79 78 78 79 80 80 82 81 82 83 83 83 83 85 84 86 86 84 81 80 79 77
72 74 75 75 72 74 76 77 77 78 77 75 76 75 76 73 70 74 75 68 71 80 83 86 87 86 86 86 84 81 81 83 79 79 78 80 80 80 79 79 79 79 79 79 79 79 80 80 81 82 81 81 82 83 84 85 84 85 82 80 79 78 76
69 73 75 74 73 72 72 75 77 79 78 77 77 78 77 74 74 75 72 68 68 79 83 85 85 79 79 79 80 83 81 81 81 80 80 80 81 81 80 79 79 79 79 79 79 79 79 80 80 81 81 82 82 85 85 85 83 84 83 79 79 77 74
65 72 72 73 73 72 71 72 74 74 72 70 72 70 74 70 68 71 71 68 70 80 81 82 81 80 79 79 80 80 80 82 80 79 80 80 80 81 80 80 79 78 79 79 79 79 80 80 81 81 81 81 82 82 84 84 85 84 82 80 78 75 74
63 70 71 71 71 68 63 66 72 75 74 75 76 77 76 76 77 71 68 71 79 82 83 80 79 81 80 80 82 81 80 78 80 80 80 81 81 81 79 78 78 79 81 81 80 81 82 81 81 82 82 82 81 82 82 82 83 82 81 80 76 75 75
64 67 67 68 64 54 58 74 80 77 75 75 73 73 75 76 77 77 80 81 81 81 79 79 80 79 79 80 81 83 82 79 77 81 81 82 82 82 81 80 80 80 81 82 82 82 81 82 85 84 83 82 82 83 83 82 81 80 79 78 76 75 75
62 64 64 60 54 58 73 73 73 79 81 80 77 78 79 79 78 79 75 77 77 78 81 81 82 82 82 80 80 83 83 81 81 79 81 80 80 80 80 80 81 80 80 80 81 80 82 84 83 83 82 83 83 82 82 81 81 79 78 76 75 74 75
64 61 62 50 56 67 70 72 72 72 77 78 77 75 76 74 78 76 76 79 81 78 77 78 78 77 79 79 76 75 79 83 83 82 81 82 83 82 82 80 80 79 80 80 81 80 81 82 83 84 83 84 84 82 82 81 80 78 77 76 75 74 74
58 60 60 60 65 66 68 68 70 71 69 71 71 67 72 76 74 75 75 77 79 76 75 75 77 78 81 80 80 79 79 78 83 86 85 86 84 83 82 83 80 80 80 81 81 80 81 83 83 84 84 84 83 82 81 81 79 78 77 75 75 74 74
62 59 57 59 60 55 65 68 71 73 72 71 70 69 72 70 74 74 74 73 75 75 75 75 76 78 79 76 79 79 79 80 80 82 84 84 83 82 82 80 81 80 81 82 81 83 82 82 84 84 84 83 81 80 80 80 80 78 77 75 75 75 75
61 59 55 55 53 60 66 66 69 72 71 70 72 69 68 74 74 72 72 72 73 74 75 74 76 77 75 77 79 78 78 82 84 82 83 85 84 83 83 82 81 81 80 80 81 81 81 80 81 82 82 82 81 79 79 80 79 77 76 76 76 75 76
60 58 56 55 61 62 63 66 68 70 71 69 69 60 66 72 73 73 71 73 73 73 75 76 76 77 76 78 77 79 80 82 82 79 78 78 80 80 81 82 81 79 78 78 79 80 81 79 79 81 82 81 80 79 78 79 78 77 76 77 77 77 77
57 54 60 61 64 66 65 65 67 69 70 68 62 58 71 69 71 71 71 74 74 74 73 77 76 74 76 77 76 78 79 80 79 80 82 81 82 81 82 80 78 79 80 81 81 81 79 77 79 81 81 79 78 77 77 77 76 78 78 78 77 77 77
58 59 57 59 64 63 64 68 67 70 66 60 64 68 64 67 70 71 74 74 73 75 76 75 73 73 76 77 78 77 78 78 77 78 78 79 79 80 78 77 78 79 80 77 78 77 76 77 78 79 79 77 77 76 76 76 77 79 78 78 77 77 77
56 56 58 55 48 63 69 64 68 68 61 64 63 67 71 71 71 73 73 75 75 75 72 73 73 74 75 76 75 75 75 75 75 76 77 77 77 77 77 76 78 79 77 76 76 74 75 76 77 78 78 76 76 75 75 76 77 78 78 77 77 77 77
53 52 51 53 63 66 69 64 57 63 64 66 68 69 70 72 73 73 72 73 74 75 73 73 73 73 73 73 74 73 73 74 75 75 75 75 75 76 77 78 77 78 75 74 73 73 74 75 76 77 78 76 75 75 75 76 76 76 76 76 76 76 75
59 55 59 61 61 64 69 66 65 66 70 72 72 71 71 72 72 74 73 72 76 76 76 75 74 73 75 74 74 72 72 73 73 72 72 75 76 76 76 75 76 77 76 73 73 72 73 73 74 75 77 76 74 74 73 74 75 75 75 75 75 75 75
60 63 63 66 63 63 66 70 69 69 70 72 72 71 70 70 71 73 72 74 74 75 76 75 74 74 75 75 76 76 75 74 73 73 74 75 77 77 77 76 76 75 75 74 73 71 71 72 72 73 75 76 74 72 73 74 74 74 74 74 73 74 75
57 49 61 62 62 63 63 64 67 71 71 69 70 69 69 69 72 73 73 74 74 76 77 76 76 77 79 77 77 76 76 76 75 75 73 73 73 73 73 73 74 75 75 75 73 73 70 71 73 73 74 74 74 72 72 73 73 74 73 73 72 74 73
56 55 58 62 65 65 65 64 62 63 66 68 69 70 71 71 71 72 71 74 74 76 74 74 73 73 75 75 73 73 73 73 73 72 72 72 72 72 73 73 74 75 75 75 73 73 72 72 73 74 73 73 73 73 74 74 74 73 72 73 73 74 74
56 59 59 60 64 65 65 66 65 63 63 65 65 68 70 72 71 71 71 72 72 72 72 73 73 72 72 74 75 76 73 72 72 71 71 71 70 72 73 73 74 74 75 74 73 72 72 72 72 72 71 71 73 73 76 77 74 73 73 72 72 74 75
55 55 56 59 55 55 61 63 63 63 64 66 67 67 67 69 68 70 70 70 71 72 71 72 72 70 70 71 72 73 72 71 71 71 71 71 71 71 71 73 73 72 72 72 72 71 71 71 71 71 71 72 74 77 77 75 74 72 71 72 72 73 74
54 58 61 59 58 56 56 58 60 63 66 66 65 64 65 67 68 70 70 69 68 68 69 70 70 68 69 70 72 72 71 69 70 70 71 71 71 72 72 73 72 72 71 71 72 71 72 71 72 72 72 74 73 74 74 74 74 73 72 72 72 74 75
57 61 62 62 59 55 57 60 62 62 64 64 63 65 65 64 66 67 68 68 66 65 67 68 69 69 69 70 72 70 70 71 70 70 71 72 71 72 72 72 71 71 71 71 71 72 72 72 71 72 73 73 72 74 74 74 75 73 73 73 72 72 70
54 60 63 63 62 62 63 63 64 64 66 67 66 65 66 67 68 68 66 67 69 70 68 68 69 70 71 71 71 69 70 71 71 70 70 71 72 72 73 73 71 71 71 72 72 72 73 72 71 72 72 72 72 75 73 73 74 73 72 71 69 67 66

ECMWFFLT2_sfc_temp_036.txt.gz
Temp
89 88 91 91 93 73 83 85 77 82 93 88 77 77 83 81 75 69 81 76 81 90 91 94 94 95 96 98 99 99 97 96 94 93 95 96 96 96 95 94 94 93 93 92 93 93 93 93 92 91 89 89 89 88 88 87 87 88 88 87 87 88 88
90 93 93 92 94 94 88 77 83 93 97 91 80 70 71 69 66 69 79 73 75 77 72 91 92 92 94 96 97 101 98 96 93 94 94 94 95 95 95 94 94 94 93 93 94 95 95 94 94 91 89 90 90 90 89 88 87 87 88 88 88 88 87
88 92 92 88 93 95 88 87 97 82 70 70 78 75 64 65 62 67 74 79 77 78 77 87 87 89 91 94 96 98 99 96 94 94 94 95 96 95 94 95 93 93 94 94 93 95 97 95 92 92 91 91 91 91 91 91 88 89 89 90 89 88 88
88 88 86 74 81 91 92 95 88 92 85 77 72 73 75 73 65 66 68 76 71 81 85 89 89 90 92 95 96 97 99 98 95 95 96 95 94 93 94 95 95 94 96 97 97 97 97 95 93 94 95 95 95 93 90 90 91 89 89 89 88 87 88
87 75 82 78 82 78 81 82 79 85 84 89 85 85 76 71 69 67 67 66 74 83 92 92 91 92 93 95 94 96 98 100 101 98 96 95 93 93 94 95 96 96 96 98 99 98 98 97 96 96 97 96 96 95 93 93 90 90 90 90 89 88 88
77 80 87 87 87 88 84 80 79 82 78 75 69 67 84 80 73 63 67 65 77 90 96 93 93 95 95 97 96 97 99 102 101 99 97 96 94 94 95 97 98 98 97 97 99 98 97 97 97 97 97 97 97 96 97 95 95 94 94 90 89 88 88
78 83 90 92 92 92 90 88 82 86 86 82 75 62 70 79 79 82 78 71 73 92 95 93 94 95 98 98 99 98 100 100 103 100 100 97 95 95 97 97 99 99 97 96 96 94 93 94 94 94 96 97 97 97 97 96 96 95 97 95 91 88 88
85 88 91 92 92 90 87 88 89 87 81 83 80 77 79 75 76 72 74 67 76 92 95 95 96 95 98 98 100 97 99 102 100 98 98 95 94 94 96 97 99 98 97 95 93 92 91 91 91 92 94 95 96 97 98 98 97 96 96 96 93 89 88
71 77 83 84 88 88 83 83 86 88 88 88 87 86 84 73 76 77 72 64 74 87 93 91 93 97 98 99 100 99 96 97 99 97 94 94 92 92 93 94 95 95 95 92 89 89 88 89 91 91 92 93 95 95 97 98 98 99 97 96 94 90 88
56 57 60 64 70 76 82 85 86 87 85 84 80 74 75 67 73 76 72 72 79 90 91 91 92 93 93 98 100 103 101 97 96 95 93 90 90 89 90 91 92 92 91 90 89 88 88 89 90 89 90 92 94 94 95 98 98 97 97 97 96 91 91
68 70 74 82 83 80 75 80 82 84 87 87 84 81 74 70 72 71 74 76 80 83 89 88 91 92 93 95 96 97 98 97 97 93 91 90 89 88 90 89 90 90 89 88 87 88 88 89 89 90 91 91 93 92 93 97 97 97 95 94 92 90 89
76 81 80 84 83 79 80 79 80 84 84 84 82 77 72 79 75 67 75 78 79 81 88 89 89 92 92 94 95 97 98 97 97 96 89 88 90 89 89 89 88 87 87 87 87 87 88 88 89 90 91 92 91 91 92 94 97 97 96 93 91 90 88
79 82 83 85 84 82 82 82 82 80 82 81 78 77 81 79 73 70 76 79 76 81 88 91 92 92 92 95 96 99 100 102 97 92 91 91 91 89 89 87 87 87 87 86 87 87 88 89 88 89 90 90 90 90 92 92 96 95 94 91 90 89 88
79 80 82 84 83 82 82 82 83 83 83 82 82 81 83 82 76 79 80 79 80 86 88 91 93 96 96 98 98 99 99 100 95 94 90 92 92 92 90 88 88 87 87 87 87 87 87 88 87 89 88 88 89 90 91 93 92 94 92 89 88 87 85
75 80 82 83 83 81 79 82 83 84 84 84 84 84 83 82 80 83 82 79 78 88 91 92 95 95 97 97 98 99 97 98 100 96 94 93 94 93 91 89 88 88 87 87 87 86 86 87 87 87 87 88 89 92 92 93 91 92 92 88 88 87 85
71 78 80 81 82 82 80 79 81 81 81 79 82 80 84 80 76 78 80 76 77 87 91 94 94 94 94 93 94 95 96 100 97 94 94 94 92 93 92 90 89 87 87 87 86 86 88 88 87 87 87 88 88 90 91 92 93 93 90 87 85 84 85
69 78 80 79 79 77 72 74 79 82 83 84 85 86 87 85 85 78 75 76 85 88 91 91 91 93 93 94 95 94 95 93 95 94 94 95 94 93 91 89 88 89 90 89 87 88 89 89 88 89 89 89 87 89 89 90 91 91 90 89 85 85 85
67 75 77 79 72 61 65 82 88 85 82 83 80 81 85 88 87 84 87 87 88 90 90 89 89 91 91 93 93 96 95 94 92 94 94 95 95 95 94 92 91 89 89 90 89 90 89 90 93 92 90 89 89 90 92 91 89 89 87 87 86 85 84
66 72 72 65 58 61 78 86 89 90 89 87 84 85 87 88 89 89 87 88 88 90 91 92 92 93 95 97 96 98 99 94 94 92 93 92 92 92 92 90 91 88 88 88 88 88 90 93 92 92 90 91 90 90 90 89 89 87 87 86 85 84 83
72 68 66 54 59 76 82 83 84 85 86 87 85 82 86 88 89 88 86 87 90 91 92 94 95 94 95 94 91 90 93 95 95 96 95 94 94 92 93 89 88 87 89 88 89 88 91 92 93 93 91 92 92 90 90 89 88 87 86 85 84 84 82
58 60 65 65 73 73 76 77 74 77 73 76 76 72 80 88 90 90 87 88 90 92 93 94 96 93 92 89 90 96 96 93 96 97 98 99 95 94 92 93 90 88 90 90 90 89 90 91 91 91 92 92 91 90 89 89 87 87 86 84 83 83 82
68 64 63 65 63 58 66 69 78 81 80 79 78 73 73 86 91 93 90 87 89 90 93 93 92 87 85 82 87 95 99 97 93 96 97 99 97 96 94 92 91 89 90 90 89 90 89 90 91 92 93 91 89 87 87 88 88 86 85 83 83 82 83
66 63 55 56 59 63 70 72 77 80 81 81 78 72 69 83 89 92 92 90 90 90 90 91 86 84 80 83 88 97 98 96 97 94 96 98 98 96 94 92 89 89 88 88 88 89 89 89 90 91 91 90 89 87 87 88 87 85 84 84 83 82 83
65 63 61 58 66 63 67 75 78 80 83 78 75 62 66 76 76 81 88 92 91 90 91 90 84 83 80 85 92 96 95 95 95 92 91 92 91 90 90 91 90 88 87 87 88 88 88 87 89 89 90 90 88 86 86 87 85 84 84 84 84 84 84
64 59 62 65 67 71 74 76 79 80 81 76 65 57 72 72 77 80 79 81 87 91 89 87 83 85 90 88 90 93 95 94 92 93 93 92 92 91 93 92 86 87 88 88 88 89 87 87 89 90 90 87 85 85 85 84 84 84 85 85 84 84 84
64 65 61 62 66 68 73 79 79 80 74 63 65 70 72 76 79 81 81 80 83 86 86 86 88 89 89 90 92 91 91 90 88 90 91 92 93 93 88 85 86 89 91 88 88 87 86 87 88 88 87 84 84 83 84 83 84 87 85 85 85 85 84
68 66 61 56 50 66 76 78 77 76 67 68 69 72 77 82 80 81 81 82 83 84 84 88 87 87 90 90 89 89 87 87 87 87 88 87 87 86 86 87 89 90 87 86 87 85 86 87 87 86 85 83 82 83 83 84 86 85 85 85 84 84 83
62 61 56 57 70 70 76 77 69 71 71 74 75 74 75 80 80 80 81 81 82 84 83 84 85 85 83 83 84 84 85 86 86 86 86 87 88 89 91 90 88 87 84 83 83 83 85 85 86 86 85 83 82 83 82 84 85 84 84 84 83 82 81
68 67 71 71 72 75 78 77 74 75 77 78 78 77 77 76 78 81 81 80 83 84 83 82 83 82 84 84 86 85 86 87 86 86 86 87 87 87 85 84 84 84 83 80 80 80 81 82 83 84 85 83 82 81 82 83 83 83 82 82 82 82 81
73 73 74 73 72 73 76 80 80 80 79 80 80 78 75 76 79 81 80 83 84 84 84 83 82 83 83 84 84 84 83 83 84 84 85 85 86 86 85 84 83 82 82 81 79 78 79 81 81 83 84 84 81 80 81 81 82 82 81 81 80 80 79
65 58 69 70 69 71 72 75 79 82 81 79 79 76 77 77 80 82 82 82 82 84 84 83 82 83 83 81 81 81 80 81 80 81 80 80 81 81 81 82 82 82 81 80 78 77 75 77 79 80 81 82 80 80 80 81 81 81 81 80 78 79 78
67 62 67 69 72 70 70 71 73 75 77 79 78 78 80 80 81 81 82 83 82 84 82 82 83 82 83 81 80 81 80 79 80 80 80 80 80 82 83 83 81 80 79 77 75 74 74 77 79 80 81 81 81 82 83 83 82 80 78 78 79 79 79
65 67 68 70 70 69 68 71 71 72 74 75 76 77 78 80 81 80 80 82 81 81 81 82 80 80 81 83 82 83 81 80 80 79 79 79 80 81 80 81 82 81 81 80 78 78 78 79 80 81 82 84 84 83 84 84 81 80 79 79 80 81 80
63 64 65 69 65 62 65 66 69 70 72 73 74 74 75 76 76 78 79 79 80 80 80 79 80 78 78 81 81 82 80 79 79 79 79 80 80 80 81 81 80 79 80 80 79 79 79 80 80 80 81 83 85 88 86 83 81 79 78 80 81 82 81
61 64 69 67 64 62 62 64 65 66 71 72 71 70 72 74 74 76 77 78 76 77 77 79 79 77 78 79 80 81 81 78 79 80 80 80 80 81 82 81 79 79 79 79 79 78 79 80 80 80 81 83 83 84 82 82 82 79 80 79 81 85 82
66 70 70 70 67 63 62 64 64 66 69 69 68 70 72 72 72 73 73 73 73 73 74 76 78 78 78 79 79 77 78 79 78 79 81 82 82 83 83 82 80 79 79 79 79 78 79 80 80 80 82 81 80 83 81 81 81 80 80 80 81 83 84
62 69 71 70 68 68 68 66 65 65 66 67 66 66 68 71 73 72 69 69 72 71 69 70 73 76 78 80 79 77 77 78 79 79 77 77 80 82 83 83 80 79 79 80 80 80 79 79 79 80 79 79 81 83 81 81 81 80 79 79 80 80 77

ECMWFFLT2_sfc_temp_042.txt.gz
Temp
93 92 94 92 94 74 86 88 78 83 94 88 77 78 83 81 75 70 82 80 85 94 92 95 96 96 96 97 98 99 98 99 96 95 96 97 97 96 96 96 94 92 93 93 95 94 94 93 92 91 89 89 88 88 87 86 86 87 86 86 86 86 86
93 98 96 95 94 94 89 80 86 95 98 93 80 70 72 71 66 70 80 77 78 79 73 91 92 92 95 95 95 98 97 97 96 96 95 94 96 96 95 94 93 93 94 94 96 96 96 94 93 91 88 90 89 89 89 87 86 85 86 87 87 87 86
93 97 95 90 94 96 87 87 98 83 73 71 79 76 64 64 63 68 74 79 78 80 79 87 87 89 91 92 93 96 97 98 96 95 95 94 96 97 95 96 93 93 95 96 94 96 98 95 91 91 91 92 91 91 90 90 87 88 88 89 88 87 87
93 92 89 75 82 91 94 96 91 96 88 79 73 76 76 73 65 67 69 75 72 84 86 89 88 90 90 92 92 94 96 96 96 94 94 95 94 94 96 97 97 96 97 99 98 97 97 96 93 94 94 94 94 93 90 90 90 89 88 88 87 87 88
92 79 84 79 83 79 82 83 81 86 87 91 86 85 78 72 67 67 67 66 74 84 95 94 92 92 93 94 92 92 95 99 101 99 97 94 95 95 96 97 98 98 98 100 100 99 98 98 96 96 96 95 95 95 93 93 89 89 89 89 88 87 88
80 83 91 89 88 88 85 83 80 84 81 75 69 68 86 81 73 62 66 65 76 90 99 93 94 95 96 96 95 94 96 98 98 96 99 96 96 95 96 98 101 101 98 99 101 99 97 98 98 96 96 96 96 95 95 94 93 91 91 89 88 87 88
83 88 94 95 94 93 91 88 84 88 87 85 77 62 72 80 80 82 77 72 73 91 95 95 96 97 99 97 97 96 97 97 101 102 101 97 95 96 98 99 101 101 97 97 97 95 94 95 94 95 95 96 96 96 96 95 93 92 93 92 90 88 88
88 94 96 95 94 92 88 89 91 88 83 85 82 79 79 75 77 73 74 67 76 92 93 95 99 94 100 97 98 95 98 99 100 101 100 94 93 94 98 98 101 98 97 95 93 92 92 92 91 93 94 95 95 96 96 96 94 93 93 93 92 89 88
73 81 86 87 92 90 85 84 87 89 89 88 88 88 85 74 77 80 73 64 75 89 93 93 96 98 99 100 101 100 97 97 100 99 94 93 92 93 96 96 95 95 96 93 91 91 89 90 93 92 93 94 95 95 96 96 95 95 94 94 93 91 90
58 59 63 67 73 79 85 87 87 88 87 85 82 75 76 67 74 75 73 72 81 91 90 92 94 95 94 97 98 101 100 97 98 95 93 91 92 91 93 93 93 93 91 91 90 90 90 91 92 90 91 94 95 95 96 97 96 95 95 96 95 92 91
69 72 76 86 86 84 78 82 83 85 89 90 86 81 75 71 75 74 76 77 79 83 88 89 93 93 93 95 95 95 96 98 97 95 92 92 91 91 94 92 93 91 91 91 90 90 92 93 93 92 93 94 95 93 94 98 97 96 94 94 92 91 91
78 84 82 88 87 82 83 82 82 85 86 87 84 78 74 78 75 67 77 79 79 82 88 88 89 93 92 93 93 96 96 94 97 95 91 90 93 93 92 92 92 91 91 91 90 90 92 92 92 93 95 95 94 93 95 97 98 99 98 94 92 91 90
82 84 86 88 88 86 86 86 85 83 85 85 82 80 85 81 74 71 78 79 78 83 88 91 91 91 91 94 95 97 98 99 95 93 93 93 94 93 93 90 90 90 90 90 90 91 91 93 92 93 94 94 93 92 95 94 99 98 95 93 92 91 90
81 82 83 85 85 86 85 85 86 86 86 84 85 85 87 85 77 82 83 79 82 87 90 94 95 95 97 96 96 96 96 98 93 94 91 95 94 94 93 91 92 90 91 91 90 90 90 91 91 93 92 91 93 94 95 97 96 97 94 91 90 90 89
78 82 83 84 84 83 82 87 86 86 86 86 86 86 86 86 84 87 86 79 78 90 92 93 96 94 95 94 96 97 94 96 99 97 98 96 98 95 93 89 90 90 90 91 91 90 90 90 90 91 91 91 93 98 97 98 95 96 96 90 90 90 89
72 81 82 82 83 82 81 81 84 83 83 83 84 81 86 83 79 81 83 77 79 88 93 95 95 94 92 92 92 93 92 98 97 96 97 97 94 93 94 91 91 89 90 90 90 90 91 91 91 91 90 91 92 94 96 97 99 99 95 92 91 89 89
69 79 83 81 81 78 73 75 81 84 85 87 89 88 87 87 88 81 77 79 87 88 91 91 91 95 94 93 95 94 94 91 95 95 97 98 98 96 91 90 89 91 93 93 91 92 93 92 91 92 92 92 90 91 92 93 95 97 95 94 90 89 89
68 76 79 80 72 61 65 82 89 87 84 86 82 83 88 89 88 85 87 87 88 91 91 90 89 91 91 92 92 94 91 91 90 95 96 98 100 100 100 94 93 92 92 93 93 93 92 93 96 95 93 92 92 93 95 94 93 93 91 91 89 89 88
68 74 75 66 59 62 79 88 91 91 90 89 88 88 89 90 91 91 89 89 88 90 92 91 91 90 93 96 96 99 101 96 95 93 96 95 95 95 96 95 95 91 91 91 91 90 93 95 94 94 93 93 93 93 93 93 92 91 91 89 88 88 87
73 69 67 55 59 76 84 88 90 92 91 90 87 84 88 91 87 84 83 88 92 90 91 94 94 92 96 97 94 94 99 100 99 100 99 100 100 98 98 94 92 90 93 92 93 91 93 94 96 95 94 95 95 94 94 93 92 91 90 88 88 87 86
64 66 65 65 74 75 79 80 83 85 80 82 80 73 80 89 90 90 82 82 85 86 90 93 95 96 97 91 91 100 101 98 101 103 102 104 102 102 99 101 97 92 93 93 95 92 93 94 94 94 95 95 93 94 94 94 91 92 90 88 87 86 86
71 64 62 64 64 60 69 76 82 89 88 90 86 77 73 84 86 87 84 82 84 87 88 86 86 87 84 84 87 95 101 102 101 103 104 105 103 103 103 98 99 94 93 95 93 93 93 93 94 94 95 94 92 90 91 92 93 91 90 87 87 86 86
67 64 59 59 57 65 72 75 85 87 88 90 86 78 70 81 83 84 86 84 85 86 84 84 85 82 77 80 87 95 101 103 105 102 103 105 105 103 102 102 101 98 93 93 93 92 92 92 93 93 93 93 92 90 90 92 92 89 87 86 86 87 87
64 64 62 59 66 62 70 80 84 87 89 87 81 63 67 76 82 84 84 84 86 83 83 84 83 81 77 81 85 99 104 103 103 99 97 98 101 102 101 103 98 93 91 90 91 92 91 90 93 93 94 92 90 89 89 90 89 87 87 86 87 87 87
63 59 62 66 68 74 80 82 85 86 87 82 66 58 71 78 82 83 84 85 85 85 83 84 80 84 86 87 92 98 100 101 101 103 101 98 99 100 104 101 88 92 91 91 91 92 91 90 93 94 93 90 88 87 87 87 86 87 87 87 87 87 86
62 64 62 57 66 74 82 85 87 88 79 62 63 73 78 82 83 85 86 85 85 85 84 84 84 86 90 92 95 95 97 98 96 97 99 99 97 101 101 90 89 92 94 90 91 94 91 91 92 92 90 87 86 86 87 86 87 88 87 87 86 86 85
67 64 56 56 51 70 84 84 83 85 71 70 74 78 82 83 82 82 81 82 82 83 82 85 85 86 89 90 90 93 95 95 91 89 94 94 94 91 90 90 92 93 91 90 92 92 92 93 92 91 89 86 86 85 86 86 88 87 87 86 85 85 84
63 61 58 58 72 78 87 83 73 74 76 79 80 79 77 81 82 80 78 79 80 81 80 81 83 85 86 86 89 89 91 93 95 94 93 94 95 93 96 94 93 94 90 90 90 90 91 90 90 89 87 85 85 85 85 87 87 86 85 85 84 84 83
70 66 71 77 81 82 86 83 78 80 82 83 82 81 79 79 79 80 78 77 80 79 80 80 80 82 85 85 89 87 86 95 94 87 85 89 94 94 92 92 91 90 90 88 88 88 89 88 88 88 87 85 84 83 85 85 84 85 84 84 83 83 83
74 75 78 81 81 82 82 84 86 84 84 84 83 81 78 79 81 81 78 78 77 78 78 74 75 75 74 75 76 77 78 79 77 76 76 73 76 86 92 91 89 89 89 88 87 86 86 86 86 86 86 86 83 83 85 84 85 84 84 82 82 82 82
67 54 72 73 75 80 84 85 86 87 85 82 81 78 77 78 80 80 81 79 77 76 74 74 73 72 73 72 73 73 73 73 73 74 73 74 73 69 65 66 77 87 88 86 84 83 82 84 85 85 85 85 84 84 84 85 85 84 82 81 81 81 81
66 61 68 72 77 78 79 80 76 78 80 81 82 80 79 79 80 79 77 76 74 75 73 73 72 72 71 70 69 70 69 69 70 71 71 71 70 69 70 71 70 71 72 76 77 79 77 79 81 83 85 85 85 86 86 87 85 83 81 81 81 81 81
63 66 68 67 73 73 76 79 79 78 78 77 77 78 79 80 78 76 76 75 73 73 73 73 72 71 70 70 69 68 68 67 68 69 70 70 69 69 69 70 70 72 73 73 73 73 76 78 82 84 85 87 88 87 87 87 84 82 81 80 81 81 80
59 59 59 62 61 59 67 74 77 77 78 77 75 75 75 75 75 76 75 74 76 76 74 73 72 70 70 70 68 67 67 66 65 68 70 70 69 69 69 69 70 72 74 74 76 77 78 80 82 83 84 85 86 88 86 85 84 81 79 80 81 81 81
55 60 62 66 68 66 68 71 75 77 78 76 74 73 73 74 74 75 73 73 72 73 73 74 72 71 70 69 68 67 67 68 68 69 67 66 67 68 69 69 70 71 75 78 79 79 80 81 82 83 84 86 85 86 85 85 84 82 81 80 80 82 82
60 64 64 67 66 62 66 70 71 72 74 74 74 75 75 74 74 74 72 72 70 71 72 72 73 72 72 72 71 69 68 68 67 68 68 69 71 75 76 76 76 77 78 78 79 79 81 82 83 83 84 84 83 85 85 84 84 82 83 81 81 83 84
58 64 63 66 69 69 71 71 72 72 71 71 69 68 70 73 74 73 72 71 72 72 70 70 69 70 70 70 71 70 69 70 71 72 74 75 78 79 81 81 79 78 79 80 80 80 80 81 81 82 82 83 84 86 84 85 84 82 82 83 82 80 78

ECMWFFLT2_sfc_temp_045.txt.gz
Temp
85 84 88 87 87 65 73 78 70 75 82 78 64 67 71 68 62 58 71 69 70 79 77 84 85 86 86 87 87 87 85 88 88 88 89 89 90 89 88 88 88 86 87 88 89 88 87 87 86 86 85 85 84 83 82 82 82 82 82 82 82 82 82
86 89 89 88 88 87 75 71 76 83 84 81 67 56 60 58 52 58 69 63 61 68 57 79 82 82 84 84 86 89 85 87 86 88 88 88 89 89 88 88 88 87 87 87 90 89 88 87 87 87 85 86 85 84 84 82 82 81 82 82 82 82 81
85 90 88 84 88 91 81 74 87 75 61 64 65 66 52 52 52 53 60 65 65 63 63 76 75 80 81 83 84 88 84 86 86 87 89 88 90 89 89 89 87 86 86 87 89 89 90 88 87 87 86 86 85 85 85 84 83 83 83 84 83 83 83
85 85 82 68 75 84 88 87 80 83 74 65 63 65 64 59 51 56 58 63 55 70 70 79 78 79 81 84 84 87 85 86 87 88 89 88 88 88 89 90 89 88 89 89 90 90 90 88 87 87 88 88 87 86 84 84 85 84 83 83 83 82 83
84 72 77 73 73 71 74 75 73 75 74 77 75 72 68 57 53 50 51 51 62 66 75 81 79 83 84 85 83 85 86 87 88 89 90 88 89 89 90 90 90 89 89 90 91 91 91 89 88 89 89 88 88 87 85 85 84 83 83 83 83 82 83
73 75 82 83 81 80 77 75 72 73 68 63 59 56 74 72 63 49 53 53 61 73 91 79 81 85 87 87 85 85 87 89 88 90 91 90 90 90 90 91 91 90 89 90 91 91 90 89 89 89 89 89 89 88 87 86 86 85 84 83 83 83 83
71 80 85 89 88 86 83 80 75 79 74 69 60 46 56 70 70 75 62 57 56 71 78 81 79 86 87 86 86 85 88 91 88 89 92 91 91 90 91 91 93 92 89 90 90 89 89 88 88 88 88 89 89 89 88 87 86 85 86 85 84 84 83
79 84 88 87 88 86 81 80 82 78 73 75 70 63 61 60 64 60 59 56 63 76 76 79 82 82 90 89 88 86 89 91 91 87 92 90 89 89 91 93 93 91 90 89 88 87 87 87 86 87 88 89 89 89 89 89 87 87 87 86 85 84 83
59 69 73 78 84 84 78 74 78 80 80 79 78 75 68 65 66 66 56 52 57 73 84 75 80 82 87 86 88 88 87 86 92 85 88 88 88 88 89 89 89 88 89 87 86 86 86 86 87 87 87 88 89 89 90 89 89 89 88 87 86 85 84
49 49 52 53 63 72 77 79 79 80 79 76 72 66 61 50 59 65 57 56 61 73 84 85 85 82 82 88 89 91 89 87 91 84 87 87 87 84 86 87 86 86 87 87 85 85 86 87 87 86 86 88 89 89 90 91 90 89 88 89 88 86 85
57 61 59 73 75 75 71 75 78 78 81 81 77 67 60 53 51 62 60 61 64 71 81 80 79 77 81 82 83 81 85 84 86 79 86 87 85 84 86 87 87 84 82 84 85 85 86 87 87 86 87 88 89 88 89 91 91 90 89 88 87 86 85
68 72 72 79 79 75 76 75 75 79 78 78 76 68 65 64 61 45 58 63 70 70 72 73 74 79 76 77 79 79 78 79 81 81 84 87 87 87 87 87 84 81 82 83 83 83 85 86 87 87 88 89 88 88 89 90 91 91 90 88 87 86 85
74 77 77 79 79 79 78 78 77 76 78 76 72 69 73 66 61 59 60 61 65 70 76 77 77 77 76 78 85 89 82 82 80 79 82 85 86 85 85 83 83 83 82 82 82 82 83 85 86 86 87 88 88 88 90 90 91 91 90 88 87 86 85
74 76 77 78 76 77 79 79 78 79 78 77 77 75 76 74 62 66 68 63 66 72 78 78 78 78 81 81 82 84 82 84 83 83 82 85 86 86 86 85 85 84 84 83 82 82 82 84 85 86 86 86 87 88 89 90 90 91 89 87 86 86 85
72 76 78 78 77 76 74 76 79 79 79 78 78 78 77 73 73 75 73 65 65 71 77 81 79 76 79 85 88 86 81 82 85 85 87 86 86 84 82 80 83 83 84 84 83 83 83 84 85 86 86 87 88 90 90 91 90 91 90 87 86 86 85
64 75 75 76 77 76 74 74 74 77 77 73 76 73 78 73 63 65 71 66 63 67 74 82 80 78 79 78 78 82 80 82 82 84 85 85 84 84 85 84 84 84 84 83 83 83 85 85 86 86 86 87 87 88 90 90 91 91 90 88 86 86 85
58 69 75 75 75 72 67 68 74 76 75 76 78 80 80 79 80 69 60 59 66 72 75 76 78 79 76 78 79 77 77 77 81 82 84 85 87 86 85 84 84 86 86 86 85 86 87 87 86 88 88 87 86 88 88 90 91 91 90 89 87 85 85
58 69 72 74 66 56 58 73 80 78 77 76 76 76 77 81 81 72 73 69 72 73 74 77 76 82 82 80 75 78 80 77 78 81 81 82 85 88 88 88 88 87 87 87 87 87 87 88 89 90 89 88 88 89 91 90 89 89 89 88 86 86 85
56 64 66 57 51 56 70 76 80 81 82 81 77 76 77 77 80 80 75 73 72 73 72 73 74 75 78 81 81 83 80 79 80 79 82 81 81 84 86 86 88 86 86 86 86 85 87 89 89 89 88 89 89 89 89 89 89 88 89 87 85 85 85
62 58 55 48 50 67 76 77 79 81 80 79 77 75 77 76 75 71 70 72 74 75 76 77 76 76 76 79 77 76 81 82 81 81 80 81 82 82 84 84 84 85 86 86 86 86 87 88 89 89 89 90 89 88 89 89 88 88 88 86 85 84 84
52 55 54 55 63 66 71 72 74 74 69 71 69 59 64 73 74 73 69 72 75 76 76 77 76 76 79 74 73 80 83 83 85 86 85 86 84 84 82 87 88 86 86 86 88 87 87 88 88 89 90 90 89 88 88 89 88 88 87 85 84 84 84
62 53 52 53 53 50 58 70 77 82 82 80 75 64 62 71 75 76 74 72 72 73 75 75 74 72 67 64 69 79 86 86 84 85 88 90 90 87 84 81 84 86 86 88 88 88 88 87 89 90 90 89 87 86 87 88 88 87 86 84 84 84 84
61 58 50 51 50 54 61 68 77 80 80 82 78 62 55 67 72 75 75 74 73 73 74 73 73 69 63 66 70 79 84 86 89 89 89 91 91 89 88 88 84 83 86 87 88 87 87 87 88 88 88 88 87 86 86 88 88 86 85 83 83 83 83
58 58 55 51 59 56 62 73 78 80 80 83 70 53 54 64 72 75 75 73 73 73 72 73 72 68 63 66 72 82 85 86 86 83 83 83 84 84 85 87 90 85 83 85 85 86 86 86 88 88 88 88 86 85 85 86 86 85 84 83 83 84 83
56 57 56 58 60 67 71 75 79 79 81 71 57 46 58 67 72 73 74 73 73 72 71 72 67 69 72 75 79 83 83 81 80 83 85 86 84 83 85 87 84 86 83 83 85 86 87 86 88 88 88 86 84 84 84 84 84 85 84 83 83 83 82
54 53 52 52 56 65 74 76 81 80 73 54 50 62 68 71 72 73 73 72 72 72 71 69 69 72 77 77 78 77 77 77 77 78 77 78 82 85 83 81 82 86 91 83 84 87 87 87 88 88 86 84 83 83 82 83 84 84 83 83 83 82 81
60 56 52 49 44 60 76 77 73 75 61 59 66 70 73 75 72 72 71 71 71 72 69 72 71 72 73 73 73 74 74 74 74 74 75 74 75 80 81 80 81 82 80 80 83 86 86 86 85 85 85 82 81 81 82 82 83 83 83 83 82 81 80
52 51 49 47 58 66 79 75 59 64 67 69 69 71 68 72 72 70 69 69 70 71 69 68 69 69 69 69 70 70 71 72 72 73 74 73 74 77 80 79 77 77 74 74 74 76 78 81 83 85 84 81 80 81 81 81 82 82 82 82 81 80 79
55 54 58 64 71 72 76 73 71 72 74 76 75 73 72 69 69 71 68 68 70 70 70 68 67 67 68 68 69 67 68 69 69 70 71 71 71 74 73 72 73 75 74 73 73 73 73 72 74 78 82 82 79 80 80 82 81 82 81 81 80 79 78
60 66 66 71 71 73 75 78 78 76 76 76 76 73 68 68 68 69 67 68 69 69 69 67 66 66 67 67 67 67 67 67 68 69 70 69 70 71 71 71 71 72 73 73 73 72 70 70 71 72 74 79 79 79 81 81 82 81 80 79 78 77 77
53 45 61 66 70 72 73 73 75 76 76 73 72 69 68 68 70 69 70 69 69 69 69 67 66 66 67 67 66 66 66 66 67 68 68 68 69 69 68 69 69 69 69 69 69 70 70 71 73 74 74 74 78 80 80 81 81 81 79 78 77 76 76
54 54 58 62 72 71 72 71 70 71 72 72 71 70 70 70 70 70 69 70 69 69 67 67 66 65 66 66 65 66 66 66 66 66 65 65 66 68 68 68 69 69 68 68 68 69 69 70 72 73 73 73 73 76 79 80 80 79 76 77 77 76 76
55 57 59 58 64 69 70 70 70 70 71 71 71 72 71 71 69 68 69 69 68 67 67 67 66 64 64 66 66 65 65 65 65 65 65 65 65 65 66 67 67 67 67 68 69 69 69 70 72 73 73 73 74 75 75 76 77 77 77 76 77 77 76
50 51 53 56 54 55 63 67 69 69 70 70 69 69 69 68 67 67 67 67 67 67 67 66 65 63 63 64 64 64 64 64 64 64 64 64 65 66 67 68 68 68 68 68 69 68 68 69 69 69 71 71 72 74 75 76 76 75 76 77 77 76 75
49 56 58 58 59 58 60 64 68 70 71 70 68 67 67 68 68 68 67 65 64 64 65 66 65 64 64 64 64 63 63 64 65 65 64 64 64 65 66 67 67 67 68 69 67 66 66 66 68 68 70 70 71 73 73 76 76 76 77 75 75 75 75
58 59 59 60 58 57 61 64 64 65 66 68 67 68 68 68 67 68 66 66 64 63 64 65 66 65 64 65 64 62 62 63 64 65 66 66 66 66 66 67 67 66 66 68 68 66 67 67 67 68 72 75 75 75 75 76 78 77 77 76 75 75 72
56 60 61 61 62 62 63 63 64 66 66 66 63 64 65 66 67 67 65 65 66 66 64 64 66 66 64 64 64 63 63 63 63 64 65 65 67 67 67 67 67 67 68 68 68 68 69 68 69 70 73 76 78 80 79 79 78 76 76 76 75 72 71

ECMWFFLT2_sfc_temp_048.txt.gz
Temp
79 77 81 79 80 61 65 72 66 69 69 71 59 56 61 60 56 53 51 61 61 64 71 78 82 81 81 81 83 84 84 85 84 83 84 85 86 86 86 86 86 85 85 85 86 85 85 85 84 83 82 82 82 81 81 80 80 80 80 80 80 80 80
79 85 81 82 83 73 66 67 67 75 75 69 63 51 54 55 46 48 62 58 56 61 54 66 73 77 79 79 80 83 84 84 83 84 84 85 86 86 86 87 87 86 86 85 87 86 86 85 85 84 83 83 83 82 82 80 80 79 80 80 80 80 80
79 83 81 77 81 84 76 68 75 72 55 59 56 54 51 48 49 47 53 56 56 56 55 62 70 73 77 78 79 81 81 82 83 84 85 86 87 87 86 86 86 86 86 86 86 86 87 86 85 85 84 84 83 83 83 82 81 81 81 81 81 81 81
78 78 75 64 70 78 83 77 72 74 64 63 58 57 49 55 44 49 49 55 51 60 61 67 72 75 77 79 78 80 82 83 84 85 86 85 85 86 86 87 86 86 87 87 87 87 86 85 85 85 85 85 84 83 82 82 82 82 81 81 81 80 81
75 66 68 68 71 68 69 70 69 69 68 66 68 62 62 53 43 41 46 50 52 56 64 73 75 77 78 80 78 79 82 84 86 86 87 86 86 86 87 87 87 86 87 88 88 89 88 87 86 86 86 85 85 84 83 83 81 81 81 81 81 81 81
62 67 73 75 76 76 73 72 68 71 63 59 55 51 62 59 55 43 46 50 46 59 74 73 76 77 80 81 81 81 82 84 85 87 87 87 87 87 87 88 88 88 87 88 89 89 87 86 85 85 86 85 85 84 84 83 83 82 82 81 81 81 81
64 70 76 81 82 81 79 76 72 73 65 60 52 47 43 60 59 58 49 49 55 63 68 74 75 78 81 83 83 82 82 83 86 87 88 88 88 88 89 89 89 89 87 87 87 86 85 85 84 85 85 85 85 85 84 84 83 83 83 83 82 81 81
71 73 75 76 81 82 76 77 78 74 67 66 60 50 46 54 52 58 54 55 48 64 69 68 73 75 82 84 84 84 84 84 86 87 88 86 86 88 90 90 90 89 88 86 85 84 83 83 83 84 85 85 85 85 85 85 84 84 84 84 83 82 81
56 66 67 67 74 78 74 72 75 77 75 70 66 65 55 58 53 57 53 53 53 63 72 71 69 72 76 80 79 80 82 83 85 86 86 86 86 87 88 88 87 87 86 83 82 83 83 82 83 84 84 85 85 85 85 85 84 85 84 84 83 82 81
46 47 51 56 61 67 70 72 74 76 76 70 63 62 56 48 50 54 50 53 49 59 72 85 84 75 74 74 78 82 84 82 84 84 85 84 85 84 85 85 84 82 82 82 82 82 82 82 83 83 83 85 85 85 85 86 85 85 85 85 84 82 82
57 57 51 57 62 67 67 69 72 74 76 76 71 60 54 56 44 55 46 55 54 64 70 76 82 83 74 76 74 75 79 80 83 83 84 84 82 82 84 83 83 81 80 81 82 82 83 83 83 84 84 85 85 85 85 86 86 85 85 84 83 82 82
66 67 60 67 72 69 71 69 70 74 74 73 69 63 61 52 55 54 53 50 62 62 66 73 79 84 72 73 76 77 78 80 83 83 83 84 83 82 83 82 80 79 80 81 81 81 83 83 84 84 85 85 85 85 85 86 86 86 86 84 83 82 82
69 71 72 72 69 70 72 73 71 70 73 72 68 65 62 60 59 57 56 51 59 63 68 70 72 71 68 73 79 82 81 82 78 78 81 82 83 82 81 80 79 79 80 80 81 81 83 83 83 83 84 84 84 85 86 86 87 86 86 84 83 82 81
69 69 72 74 70 69 70 73 72 72 73 72 73 71 67 67 59 60 60 54 61 65 69 71 77 71 71 71 73 76 77 81 77 77 77 83 85 84 82 81 81 81 81 81 81 81 82 82 82 83 83 83 84 84 85 86 86 87 85 83 82 82 81
66 70 72 74 73 68 67 68 72 73 73 73 73 73 68 64 62 61 63 59 61 66 64 68 69 67 68 74 75 79 73 74 78 78 79 80 82 82 82 81 81 81 82 82 82 81 81 81 82 83 83 83 84 86 86 87 86 87 86 83 83 82 82
62 69 70 71 73 71 67 67 66 67 71 69 71 69 70 64 56 57 59 56 58 64 64 68 68 70 74 74 71 73 73 74 75 77 79 81 82 82 81 80 80 80 81 81 80 81 81 82 82 83 82 83 84 84 86 86 87 87 86 84 83 82 82
56 67 70 70 70 66 61 63 69 68 66 68 72 74 75 75 73 64 59 59 61 69 70 72 71 71 71 73 70 71 73 73 75 76 79 79 80 81 80 78 78 80 81 81 81 82 83 83 83 84 85 84 83 84 85 86 87 87 86 85 83 82 82
50 66 67 69 61 52 56 65 74 72 69 69 68 66 70 73 72 65 70 72 64 66 65 70 74 72 67 68 71 68 75 74 73 75 77 81 83 83 83 83 83 82 82 82 83 84 84 84 86 87 86 85 85 86 87 87 86 86 85 85 84 83 82
53 59 63 57 51 52 59 70 76 77 74 74 68 65 65 66 64 71 68 64 64 66 70 71 68 68 70 73 73 76 76 72 74 78 77 76 77 80 82 82 84 84 84 84 83 83 84 85 85 86 85 86 86 86 85 85 85 85 85 84 83 83 82
51 54 55 50 44 55 66 69 70 74 77 72 69 63 66 66 65 62 64 66 64 65 65 68 69 72 73 74 74 74 76 78 77 75 76 79 81 81 82 84 85 84 86 86 86 84 85 85 85 86 86 87 87 86 86 85 85 85 84 84 83 83 82
50 48 53 51 57 62 61 64 66 66 63 68 66 55 60 66 66 64 63 64 65 65 66 68 69 73 73 70 69 75 76 74 75 77 78 78 78 79 78 80 81 80 84 85 87 86 85 85 86 86 87 88 86 86 85 85 84 84 84 83 83 82 82
54 50 48 50 51 49 50 59 69 74 72 72 71 65 56 65 67 67 65 63 64 65 66 66 65 66 67 61 63 71 76 76 75 75 76 79 79 76 75 74 78 80 81 83 83 83 83 83 85 86 87 87 85 84 84 84 84 84 84 83 83 83 83
54 52 46 45 45 48 50 64 69 73 75 76 70 62 52 62 64 67 66 66 65 65 66 64 66 65 56 57 63 69 72 74 75 72 73 74 75 77 78 76 77 77 77 80 83 82 82 82 83 84 85 86 85 83 83 84 84 83 83 83 83 83 83
52 49 48 46 50 54 61 66 71 73 72 73 69 50 48 60 65 66 66 66 65 64 65 68 65 62 57 58 63 70 72 73 72 71 71 71 72 75 76 76 74 74 76 76 76 79 81 82 83 82 84 84 84 83 83 84 83 83 83 84 85 85 85
53 53 50 51 56 64 66 68 71 71 73 71 56 44 55 62 65 66 66 66 65 65 64 65 62 61 63 66 68 71 70 69 69 71 71 71 72 73 75 73 74 73 72 76 79 81 82 82 83 84 84 83 82 82 82 82 82 84 85 85 85 84 84
49 46 48 46 51 60 67 69 72 73 72 58 46 57 63 65 64 65 67 65 65 65 63 63 63 64 67 68 68 67 67 66 67 68 69 69 71 72 72 72 72 72 73 73 74 78 78 79 78 79 79 81 82 82 81 81 83 86 86 85 84 83 82
51 48 44 46 44 58 67 72 68 63 55 51 62 65 66 67 65 65 65 65 64 65 62 64 63 64 65 65 65 65 66 66 66 67 67 67 68 68 69 70 71 72 70 70 70 71 73 76 78 79 80 78 78 79 80 82 85 85 84 84 83 82 82
44 44 41 41 51 57 65 63 56 60 64 68 67 66 61 64 64 63 62 63 64 64 63 62 63 64 63 63 64 64 66 67 67 68 67 68 68 69 70 70 69 70 70 70 70 70 71 71 74 77 80 79 78 78 78 76 77 79 79 80 80 80 80
50 46 48 56 59 60 66 67 65 66 67 68 68 66 64 62 62 64 63 62 64 64 64 64 64 63 64 64 65 65 65 66 66 66 66 67 67 67 67 67 68 68 68 69 70 70 70 71 71 73 77 79 77 78 76 77 78 78 78 78 79 79 79
56 58 59 61 60 59 62 68 69 67 67 68 68 65 62 63 63 64 63 63 63 64 65 64 64 64 65 64 65 66 66 66 66 65 65 67 67 67 67 66 67 67 68 68 69 68 69 70 71 71 72 75 75 74 76 77 78 79 78 78 77 77 78
48 42 56 55 57 59 60 63 66 68 67 66 66 64 64 64 65 65 65 64 63 63 63 62 62 63 65 64 64 64 64 65 65 65 64 65 65 65 64 65 66 67 67 67 67 67 68 69 70 71 70 70 71 73 75 77 79 79 78 77 76 76 76
49 49 54 55 59 61 61 61 62 62 64 65 65 65 65 64 65 64 64 65 63 63 61 61 60 60 62 63 63 63 63 64 64 64 64 64 64 64 65 66 66 67 67 66 66 66 66 67 69 69 69 69 70 70 70 71 72 74 74 74 75 74 75
51 54 56 56 58 59 60 62 64 64 64 63 64 64 64 64 63 63 64 64 63 62 61 61 61 60 60 62 62 62 62 63 63 64 64 65 65 65 65 66 66 66 66 66 66 65 65 66 67 68 68 69 69 69 70 70 70 69 68 68 70 71 70
46 47 50 55 51 50 54 58 60 64 65 64 63 63 63 63 62 62 62 62 64 63 63 62 61 59 59 60 60 61 61 62 62 62 63 64 65 65 66 67 66 66 66 66 65 65 65 66 66 67 68 69 69 69 69 70 70 69 68 68 68 68 68
46 53 56 57 57 56 56 58 61 62 64 65 63 62 62 62 63 63 62 61 61 61 61 63 61 60 60 60 61 61 62 62 62 63 63 63 64 66 66 66 66 66 65 66 65 65 65 65 65 67 68 68 69 69 70 69 70 69 68 67 66 67 67
56 58 57 58 56 54 57 60 60 60 61 63 63 63 63 62 62 62 62 62 60 59 60 61 62 61 60 61 61 60 60 61 62 63 64 64 64 66 67 66 66 66 66 66 65 65 66 66 66 66 68 69 68 69 70 70 70 69 69 67 66 66 65
54 59 59 58 58 59 60 60 60 61 62 63 62 61 61 61 62 62 61 61 62 62 60 60 60 61 61 61 60 59 59 61 63 64 64 64 65 64 65 66 66 66 66 67 66 66 66 67 67 68 68 69 70 71 71 71 71 70 70 69 67 66 66